Regional Weather Roundup
Issued by NWS

Home | Current Version | Previous Version | Graphics & Text | Print | Product List | Glossary On
Versions: 1 2 3 4 5 6 7 8 9 10 11 12 13 14 15 16 17 18 19 20 21 22 23 24 25 26 27 28 29 30 31 32 33 34 35 36 37 38 39 40 41 42 43 44 45 46 47 48 49 50
000
ASUS43 KIND 212209
RWRIN

WEATHER ROUNDUP FOR INDIANA
NATIONAL WEATHER SERVICE INDIANAPOLIS IN
600 PM EDT SUN MAY 21 2017

NOTE: "FAIR" INDICATES FEW OR NO CLOUDS BELOW 12,000 FEET WITH NO
SIGNIFICANT WEATHER AND/OR OBSTRUCTIONS TO VISIBILITY.

* - STATION DOES NOT REPORT WEATHER SUCH AS PRECIPITATION OR FOG.

+ - STATION NOT QUALITY CONTROLLED BY THE NATIONAL WEATHER SERVICE.
    USE DATA WITH CAUTION...ESPECIALLY DEWPOINT AND RELATIVE
    HUMIDITY OBSERVATIONS.

INZ001>003-010>013-019-020-212300-
NORTHWEST INDIANA

CITY           SKY/WX    TMP DP  RH WIND       PRES   REMARKS
GARY /AIRPORT/ CLOUDY    64  43  45 W23       29.98R
KNOX *+        CLOUDY    63  37  39 W14G23    29.97R
LA PORTE +     CLOUDY    61  49  64 W10G24    29.97R
MICHIGAN CITY+ CLOUDY    61  46  59 W15G22    29.97R
MONTICELLO +   CLOUDY    64  51  63 W17G24    29.98R
RENSSELAER +   CLOUDY    61  45  55 W16       30.00R
VALPARAISO     CLOUDY    62  49  62 W16G24    29.98R

$$

LMZ046-743>745-212300-
SOUTHERN LAKE MICHIGAN

STATION/POSITION TIME  TEMP    WIND        PRES    WAVE
                       AIR SEA DIR/SP/G            HT
                 (UTC) (F)     (DEG/KT/KT) (MB)    (FT)
BURNS HARBOR     2140   60     260/ 15/ 21 1014.9S
MICHIGAN CITY    2140   57     240/ 19/ 20   N/A
5NW MICH CITY    2200   56 53  260/ 12/ 16   N/A     2

$$

INZ004-005-014>016-021>024-212300-
NORTH CENTRAL INDIANA

CITY           SKY/WX    TMP DP  RH WIND       PRES   REMARKS
ELKHART        CLOUDY    64  50  59 W14G22    29.95S
GOSHEN         CLOUDY    66  49  54 W21       29.94S
LOGANSPORT +   CLOUDY    64  52  63 W16G22    29.98S
ROCHESTER +    PTSUNNY   68  50  52 W15G21    29.97R
SOUTH BEND     PTSUNNY   63  50  62 W18G26    29.95S
WARSAW +       CLOUDY    64  50  59 W15       29.95S

$$

INZ006>009-017-018-025>027-212300-
NORTHEAST INDIANA

CITY           SKY/WX    TMP DP  RH WIND       PRES   REMARKS
ANGOLA *+      PTSUNNY   70  61  73 W16       29.92S
AUBURN +       PTSUNNY   70  54  56 W13       29.94R
FORT WAYNE     MOSUNNY   71  54  54 W20G25    29.94S
HUNTINGTON +   SUNNY     69  53  55 W15G25    29.95S
KENDALLVILLE + PTSUNNY   69  53  55 W23       29.94S

$$

INZ028-029-035-036-043>045-051>053-212300-
WEST CENTRAL INDIANA

CITY           SKY/WX    TMP DP  RH WIND       PRES   REMARKS
CRAWFORDSVL +  CLOUDY    66  54  65 W17G23    29.99S
GREENCASTLE +  PTSUNNY   70  50  49 W9        29.99F
LAFAYETTE      MOSUNNY   64  53  67 W16       29.98S
TERRE HAUTE    PTSUNNY   69  51  52 SW14      30.00F

$$

INZ030>032-037>040-046>048-054>057-064-065-212300-
CENTRAL INDIANA

CITY           SKY/WX    TMP DP  RH WIND       PRES   REMARKS
CP ATTERBURY + SUNNY     73  50  43 SW10G20   29.97S
COLUMBUS       MOSUNNY   75  55  50 SW13G21   29.97F
FISHERS *+     SUNNY     72  57  60 W7G21     29.97S
FRANKFORT +    PTSUNNY   70  57  64 W17       30.00S
GREENWOOD *+   SUNNY     74  46  36 W17G24    29.97F
INDIANAPOLIS   MOSUNNY   72  52  49 W18       29.97S
-EAGLE CREEK   SUNNY     72  52  49 W14G21    29.96F
KOKOMO +       PTSUNNY   69  54  58 W18G24    29.97F
MARION +       SUNNY     70  55  60 W18G25    29.97S
MT COMFORT *+  MOSUNNY   73  55  53 W16G23    29.96F
SHELBYVILLE    MOSUNNY   76  56  49 W16       29.95F
ZIONSVILLE +   SUNNY     69  54  59 W12G18    29.98S

$$

INZ033-034-041-042-049-050-058-059-212300-
EAST CENTRAL INDIANA

CITY           SKY/WX    TMP DP  RH WIND       PRES   REMARKS
MUNCIE         SUNNY     75  52  44 W15G23    29.95S
RICHMOND +     MOSUNNY   72  63  73 W17       29.97F

$$

INZ060-061-067>069-081>083-085>088-212300-
SOUTHWEST INDIANA

CITY           SKY/WX    TMP DP  RH WIND       PRES   REMARKS
EVANSVILLE     SUNNY     77  50  38 W9G20     30.01F
HUNTINGBURG *+ SUNNY     75  57  53 W16       29.99F
WASHINGTON +   SUNNY     73  51  45 W9G18     30.00S

$$

INZ062-063-066-070>080-084-089>092-212300-
SOUTH CENTRAL AND SOUTHEAST INDIANA

CITY           SKY/WX    TMP DP  RH WIND       PRES   REMARKS
BEDFORD +      SUNNY     75  54  46 SW9       29.97F
BLOOMINGTON    SUNNY     72  50  45 W13G21    29.99S
MADISON *+     MOSUNNY   77  61  57 SW10G17   29.99F
NORTH VERNON + MOSUNNY   73  63  68 SW12G23   29.97F
SEYMOUR +      SUNNY     75  59  57 SW14      29.97F

$$





USA.gov is the U.S. government's official web portal to all federal, state and local government web resources and services.